Location: Cassagne
(43.1218°N, 0.9901°E)
Time: 08:50:16
(UTC+00:00)

Cosmos 1603 - Pass Details

Date: 17 February 2020
Orbit: 832 x 858 km, 71.0° (Epoch: 09 April)

Event Time Altitude Azimuth Distance (km) Brightness Sun altitude
Rises 04:49:08 0° 188° (S) 3,412 6.7 -23.0°
Reaches altitude 10° 04:51:37 10° 184° (S) 2,477 6.0 -22.6°
Maximum altitude 04:57:09 53° 109° (ESE) 1,036 4.4 -21.6°
Drops below altitude 10° 05:02:39 10° 34° (NNE) 2,479 6.6 -20.6°
Sets 05:05:09 0° 29° (NNE) 3,414 7.3 -20.1°
